[[{"header":{"parameterUnit":"m.s-1","parameterCategory":1,"la1":30.2992,"la2":30.254,"lo1":-89.0895,"lo2":-89.0443,"dy":0.0025,"dx":0.0025,"nx":19,"ny":19,"refTime":"2026-04-17T03:00:00:Z","depth":0,"parameterNumber":2,"parameterNumberName":"U-component_of_WINDS"},"data":[0,0,0,-0.9152,-0.915,-0.9072,-0.9071,-0.8995,-0.8995,0,0,0,0,0,0,0,0,0,0,0,-0.9189,-0.9189,-0.9152,-0.915,-0.9072,-0.9071,-0.8995,-0.8995,0,0,0,0,0,0,0,0,0,0,0,-0.9189,-0.9189,-0.9189,-0.915,-0.9072,-0.9071,-0.8995,-0.9046,0,0,0,0,0,0,0,0,0,0,-0.9119,-0.9165,-0.9189,-0.9189,-0.915,-0.9072,-0.9071,-0.9048,-0.9043,-0.9041,0,-0.9041,0,-0.9017,-0.8991,-0.8991,0,0,0,-0.914,-0.917,-0.9136,-0.9189,-0.9149,-0.9072,-0.9104,-0.9045,-0.9039,-0.9034,-0.904,-0.9037,-0.9016,-0.8991,-0.899,-0.9009,-0.901,0,0,-0.9145,-0.9182,-0.9141,-0.9133,-0.9146,-0.9107,-0.9102,-0.9041,-0.9051,-0.904,-0.9034,-0.9014,-0.899,-0.899,-0.9009,-0.901,0,0,0,-0.9164,-0.9186,-0.9153,-0.9137,-0.9121,-0.9105,-0.9099,-0.9053,-0.9039,-0.9033,-0.9014,-0.899,-0.8989,-0.9008,-0.9009,-0.9073,0,0,0,-0.9166,-0.9196,-0.9155,-0.9177,-0.9123,-0.9086,-0.9113,-0.9044,-0.9036,-0.9014,-0.899,-0.8989,-0.9007,-0.9009,-0.907,-0.9097,0,0,0,-0.9189,-0.9199,-0.9192,-0.9179,-0.9147,-0.9086,-0.9068,-0.9041,-0.9024,-0.8991,-0.8989,-0.9007,-0.9008,-0.9067,-0.9092,-0.9113,0,0,0,-0.9225,-0.9249,-0.9194,-0.9214,-0.9148,-0.9126,-0.9068,-0.905,-0.9029,-0.899,-0.9008,-0.9009,-0.9066,-0.9089,-0.9111,-0.9138,-0.9153,0,0,-0.9277,-0.9257,-0.9266,-0.9214,-0.9211,-0.9135,-0.9142,-0.9087,-0.905,-0.9026,-0.9025,-0.9071,-0.9092,-0.9113,-0.9223,-0.9235,0,0,0,-0.9295,-0.9302,-0.9293,-0.9275,-0.9234,-0.9202,-0.9143,-0.9123,-0.91,-0.9045,-0.9083,-0.9094,-0.9105,-0.9117,-0.9127,-0.9134,-0.9016,-0.9016,-0.9015,-0.9422,-0.9374,-0.9386,-0.9329,-0.9312,-0.9251,-0.9234,-0.9197,-0.9153,-0.9163,-0.9155,-0.9228,-0.9243,-0.925,-0.9259,-0.9165,-0.9166,-0.9166,-0.9166,-0.9494,-0.9497,-0.9439,-0.943,-0.9379,-0.9371,-0.9315,-0.9284,-0.9271,-0.9229,-0.9236,-0.9195,-0.9265,-0.927,-0.917,-0.917,-0.9169,-0.9169,-0.9168,-0.9573,-0.9566,-0.9541,-0.9511,-0.9493,-0.9435,-0.9425,-0.9379,-0.9336,-0.9343,-0.9331,-0.9329,-0.9323,-0.934,-0.9341,-0.9341,-0.9341,-0.9341,-0.9341,-0.9664,-0.9634,-0.963,-0.959,-0.9573,-0.9546,-0.9487,-0.9469,-0.9438,-0.9406,-0.9405,-0.9362,-0.928,-0.9261,-0.9345,-0.9344,-0.9344,-0.9343,-0.9343,-0.9756,-0.9728,-0.9723,-0.9706,-0.9656,-0.9643,-0.9585,-0.9554,-0.9533,-0.953,-0.9484,-0.9431,-0.9408,-0.94,-0.9384,-0.9494,-0.9494,-0.9494,-0.9494,-0.9822,-0.9806,-0.9791,-0.9768,-0.9739,-0.9687,-0.9685,-0.964,-0.9589,-0.9574,-0.9551,-0.9526,-0.952,-0.95,-0.9489,-0.9474,-0.9605,-0.9605,-0.9605,-0.9877,-0.9856,-0.9862,-0.9811,-0.977,-0.9735,-0.9732,-0.9709,-0.9646,-0.9608,-0.9561,-0.9557,-0.9515,-0.9504,-0.9465,-0.945,-0.942,0,0]},{"header":{"parameterUnit":"m.s-1","parameterCategory":1,"la1":30.2992,"la2":30.254,"lo1":-89.0895,"lo2":-89.0443,"dy":0.0025,"dx":0.0025,"nx":19,"ny":19,"refTime":"2026-04-17T03:00:00:Z","depth":0,"parameterNumber":3,"parameterNumberName":"V-component_of_WINDS"},"data":[0,0,0,4.0522,4.0519,4.0395,4.0394,4.0235,4.0233,0,0,0,0,0,0,0,0,0,0,0,4.0559,4.0558,4.0522,4.0519,4.0395,4.0394,4.0235,4.0233,0,0,0,0,0,0,0,0,0,0,0,4.056,4.0559,4.0557,4.0518,4.0395,4.0394,4.0235,4.0329,0,0,0,0,0,0,0,0,0,0,4.0449,4.0485,4.0559,4.0557,4.0518,4.0395,4.0394,4.0333,4.0323,4.0291,0,4.0265,0,4.0247,4.0223,4.0222,0,0,0,4.0517,4.0494,4.046,4.0557,4.0517,4.0395,4.045,4.0327,4.0316,4.0277,4.0262,4.0256,4.0244,4.0222,4.0221,4.0049,4.0048,0,0,4.0524,4.0537,4.0468,4.0453,4.0474,4.0454,4.0447,4.032,4.0304,4.0262,4.0253,4.0241,4.0221,4.0219,4.0049,4.0048,0,0,0,4.0545,4.0542,4.0511,4.0459,4.0437,4.0451,4.0442,4.0309,4.0298,4.0251,4.024,4.022,4.0218,4.005,4.0049,4.0027,0,0,0,4.0549,4.0554,4.0514,4.052,4.044,4.0372,4.0434,4.0307,4.0293,4.024,4.022,4.0216,4.0051,4.005,4.0029,4.0013,0,0,0,4.0567,4.0556,4.0539,4.0521,4.0469,4.0374,4.0355,4.0304,4.0286,4.0222,4.0216,4.0051,4.005,4.0031,4.0017,3.9973,0,0,0,4.0589,4.0517,4.0538,4.0454,4.047,4.0362,4.0356,4.0274,4.0217,4.0219,4.0051,4.0049,4.0032,4.0019,3.9976,3.994,3.9926,0,0,4.0505,4.0508,4.0457,4.0472,4.0365,4.038,4.0267,4.0201,4.0182,4.0094,4.0089,4.0028,4.0017,3.9974,3.9843,3.9832,0,0,0,4.0435,4.0399,4.0368,4.0316,4.0266,4.0222,4.0173,4.0149,4.0074,4.014,4.0,3.9993,3.9967,3.9949,3.994,3.9918,4.0041,4.0042,4.0042,4.0332,4.0316,4.0232,4.0201,4.015,4.0103,4.006,4.0019,4.0013,3.9981,3.9955,3.9878,3.9858,3.985,3.9828,3.9934,3.9934,3.9934,3.9934,4.0209,4.0156,4.0155,4.0074,4.0056,3.9986,3.9938,3.9938,3.987,3.9895,3.9872,3.9901,3.9839,3.9818,3.9932,3.9932,3.9932,3.9933,3.9933,4.014,4.0112,4.0087,4.0013,3.9958,3.9928,3.9865,3.985,3.9835,3.9812,3.9784,3.9784,3.9783,3.98,3.9799,3.9799,3.9799,3.9799,3.9799,4.0079,4.0052,4.0001,3.9946,3.9913,3.9867,3.9821,3.9787,3.9745,3.9739,3.9739,3.9738,3.9837,3.9862,3.9794,3.9795,3.9796,3.9796,3.9796,3.996,3.9986,3.9908,3.9876,3.9811,3.9758,3.9742,3.9675,3.9645,3.9615,3.9619,3.9695,3.9695,3.9702,3.9723,3.9623,3.9623,3.9623,3.9623,3.9903,3.9903,3.9823,3.9771,3.9719,3.9698,3.9611,3.9576,3.9542,3.9523,3.9536,3.9562,3.957,3.9566,3.9576,3.9595,3.9465,3.9465,3.9465,3.9829,3.9825,3.9754,3.9725,3.9675,3.9632,3.955,3.9491,3.9458,3.9458,3.9508,3.9515,3.9557,3.9572,3.9572,3.9588,3.9623,0,0]}]]